Weather History for Ahmedabad, India

Change the Weather History Date:

Friday, September 7, 2012

  Actual Average Record
Temperature  
Mean Temperature 80 °F -  
Max Temperature 84 °F 90 °F 100 °F (2004)
Min Temperature 76 °F 75 °F 71 °F (2005)
Cooling Degree Days 15    
Growing Degree Days 30 (Base 50)    
Moisture  
Dew Point 75 °F    
Average Humidity 81    
Maximum Humidity 98    
Minimum Humidity 74    
Precipitation  
Precipitation 0.00 in 0.09 in - ()
Sea Level Pressure  
Sea Level Pressure 29.55 in    
Wind  
Wind Speed 6 mph ()    
Max Wind Speed 12 mph    
Max Gust Speed -    
Visibility 1.4 miles    
Events Rain , Thunderstorm    
Averages and records for this station are not official NWS values.
T = Trace of Precipitation, MM = Missing Value Source: Averaged Metar Reports

Daily Weather History Graph

Daily Weather History Graph

Search for Another Location

Airport:

Trip Planner

Search our weather history database for the weather conditions in past years. The results will help you decide how hot, cold, wet, or windy it might be!

Date:

Astronomy

Sep. 07, 2012 Rise Set
Actual Time 6:23 AM IST 6:50 PM IST
Civil Twilight 6:00 AM IST 7:13 PM IST
Nautical Twilight 5:34 AM IST 7:40 PM IST
Astronomical Twilight 5:07 AM IST 8:06 PM IST
Moon 11:14 PM IST (9/7) 12:04 PM IST (9/7)
Length of Visible Light 13h 12m
Length of Day
12h 27m
Waning Gibbous, 62% of the Moon is Illuminated
Sep 7
Waning Gibbous
Sep 8
Last Quarter
Sep 16
New
Sep 23
First Quarter
Sep 30
Full

Hourly Weather History & Observations

Time (IST) Temp. Heat Index Dew Point Humidity Pressure Visibility Wind Dir Wind Speed Gust Speed Precip Events Conditions
2:10 AM 78.8 °F - 69.8 °F 74% 29.56 in 0.9 mi SW 4.6 mph - N/A Rain , Thunderstorm Thunderstorms and Rain
2:30 AM 79 °F - 78 °F 97% 29.57 in 0 mi SW 4.6 mph - - Rain Light Rain
2:40 AM 78.8 °F - 69.8 °F 74% 29.53 in 0.9 mi SW 4.6 mph - N/A Rain , Thunderstorm Thunderstorms and Rain
3:10 AM 78.8 °F - 69.8 °F 74% 29.56 in 0.9 mi SW 4.6 mph - N/A Rain , Thunderstorm Thunderstorms and Rain
3:40 AM 78.8 °F - 69.8 °F 74% 29.53 in 0.9 mi SW 4.6 mph - N/A Rain , Thunderstorm Light Thunderstorms and Rain
4:10 AM 78.8 °F - 69.8 °F 74% 29.53 in 0.9 mi SW 4.6 mph - N/A Rain , Thunderstorm Light Thunderstorms and Rain
4:40 AM 78.8 °F - 69.8 °F 74% 29.53 in 0.9 mi SW 4.6 mph - N/A Rain , Thunderstorm Light Thunderstorms and Rain
5:10 AM 78.8 °F - 69.8 °F 74% 29.53 in 0.9 mi SSW 4.6 mph - N/A Rain , Thunderstorm Light Thunderstorms and Rain
5:30 AM 79 °F - 78 °F 95% 29.54 in 0 mi SW 3.5 mph - - Rain Light Rain
5:40 AM 78.8 °F - 69.8 °F 74% 29.53 in 0.9 mi SW 4.6 mph - N/A Rain Light Rain
6:10 AM 78.8 °F - 69.8 °F 74% 29.53 in 0.9 mi SW 4.6 mph - N/A Rain Light Rain
6:40 AM 78.8 °F - 69.8 °F 74% 29.56 in 0.9 mi SSW 6.9 mph - N/A Rain Light Rain
7:10 AM 78.8 °F - 69.8 °F 74% 29.56 in 0.9 mi SSW 5.8 mph - N/A Rain Light Rain
7:40 AM 78.8 °F - 69.8 °F 74% 29.56 in 0.9 mi SW 9.2 mph - N/A   Overcast
8:10 AM 78.8 °F - 69.8 °F 74% 29.59 in 0.9 mi SW 6.9 mph - N/A   Haze
8:30 AM 79 °F - 79 °F 98% 29.60 in 1 mi SW 5.8 mph - - Rain Light Drizzle
8:40 AM 80.6 °F 84.6 °F 71.6 °F 74% 29.59 in 1.2 mi SW 6.9 mph - N/A   Haze
9:40 AM 80.6 °F 84.6 °F 71.6 °F 74% 29.62 in 1.9 mi SW 6.9 mph - N/A   Haze
10:10 AM 80.6 °F 84.6 °F 71.6 °F 74% 29.62 in 2.2 mi SW 6.9 mph - N/A   Haze
10:40 AM 80.6 °F 84.6 °F 71.6 °F 74% 29.59 in 2.2 mi SSW 9.2 mph - N/A   Haze
11:10 AM 82.4 °F 88.2 °F 73.4 °F 74% 29.59 in 2.2 mi SSW 6.9 mph - N/A   Haze
11:30 AM 82 °F - 80 °F 90% 29.61 in 1 mi SW 5.8 mph - -   Haze
11:40 AM 84.2 °F 94.1 °F 77.0 °F 79% 29.59 in 2.2 mi SSW 9.2 mph - N/A   Haze
12:10 PM 84.2 °F 92.3 °F 75.2 °F 74% 29.59 in 2.2 mi SW 9.2 mph - N/A   Haze
12:40 PM 84.2 °F 94.1 °F 77.0 °F 79% 29.56 in 2.2 mi SW 9.2 mph - N/A   Haze
1:10 PM 86.0 °F 99.3 °F 78.8 °F 79% 29.56 in 2.2 mi SSW 9.2 mph - N/A   Haze
1:40 PM 86.0 °F 96.9 °F 77.0 °F 74% 29.53 in 2.2 mi SSW 9.2 mph - N/A   Haze
2:10 PM 84.2 °F 92.3 °F 75.2 °F 74% 29.53 in 1.6 mi SSW 10.4 mph - N/A Rain Light Rain
2:30 PM 83 °F - 81 °F 90% 29.54 in 1 mi SSW 3.5 mph - - Rain Light Rain
2:40 PM 86.0 °F 101.9 °F 80.6 °F 84% 29.50 in 1.6 mi SSW 10.4 mph - N/A Rain Light Rain
3:40 PM 84.2 °F 96.1 °F 78.8 °F 84% 29.50 in 1.9 mi SSW 9.2 mph - N/A   Haze
4:10 PM 84.2 °F 96.1 °F 78.8 °F 84% 29.50 in 1.9 mi SSW 11.5 mph - N/A   Haze
4:40 PM 82.4 °F 92.4 °F 78.8 °F 89% 29.50 in 1.9 mi SSW 9.2 mph - N/A Rain Light Rain
5:10 PM 82.4 °F 92.4 °F 78.8 °F 89% 29.50 in 1.9 mi SSW 3.5 mph - N/A Rain Light Rain
5:30 PM 81 °F - 79 °F 91% 29.52 in 1 mi SSW 3.5 mph - - Rain Light Rain
5:40 PM 82.4 °F 92.4 °F 78.8 °F 89% 29.50 in 1.9 mi SSW 6.9 mph - N/A Rain Light Rain
6:10 PM 82.4 °F 92.4 °F 78.8 °F 89% 29.50 in 1.9 mi South 6.9 mph - N/A   Haze
6:40 PM 82.4 °F 92.4 °F 78.8 °F 89% 29.50 in 1.2 mi South 6.9 mph - N/A   Overcast
7:10 PM 82.4 °F 92.4 °F 78.8 °F 89% 29.53 in 1.2 mi SSW 6.9 mph - N/A   Overcast
7:40 PM 82.4 °F 92.4 °F 78.8 °F 89% 29.53 in 1.6 mi South 6.9 mph - N/A   Haze
8:30 PM 81 °F - 78 °F 90% 29.57 in 1 mi SW 6.9 mph - -   Overcast
8:40 PM 82.4 °F 90.9 °F 77.0 °F 84% 29.56 in 2.2 mi SSW 6.9 mph - N/A   Haze
9:10 PM 82.4 °F 92.4 °F 78.8 °F 89% 29.56 in 2.5 mi SSW 6.9 mph - N/A   Haze
11:10 PM 80.6 °F 86.2 °F 75.2 °F 84% 29.59 in 1.9 mi SSW 6.9 mph - N/A Rain Rain
11:30 PM 80 °F - 78 °F 93% 29.60 in 1 mi SSW 5.8 mph - - Rain Light Drizzle
11:40 PM 80.6 °F 85.4 °F 73.4 °F 79% 29.59 in 1.9 mi SSW 6.9 mph - N/A   Haze